Weather History for Detroit Lakes, MN

Change the Weather History Date:

Friday, May 10, 2013

  Actual Average Record
Temperature  
Mean Temperature 48 °F -  
Max Temperature 62 °F 67 °F 88 °F (1987)
Min Temperature 35 °F 41 °F 16 °F (1981)
Degree Days  
Heating Degree Days 16    
Moisture  
Dew Point 34 °F    
Average Humidity 61    
Maximum Humidity 93    
Minimum Humidity 32    
Precipitation  
Precipitation 0.00 in - - ()
Sea Level Pressure  
Sea Level Pressure 30.07 in    
Wind  
Wind Speed 8 mph (South)    
Max Wind Speed 28 mph    
Max Gust Speed 41 mph    
Visibility 10 miles    
Events Rain    
Averages and records for this station are not official NWS values.
T = Trace of Precipitation, MM = Missing Value Source: NWS Daily Summary

Daily Weather History Graph

Daily Weather History Graph

Search for Another Location

Airport:

Trip Planner

Search our weather history database for the weather conditions in past years. The results will help you decide how hot, cold, wet, or windy it might be!

Date:

Astronomy

May. 10, 2013 Rise Set
Actual Time 5:54 AM CDT 8:45 PM CDT
Civil Twilight 5:19 AM CDT 9:21 PM CDT
Nautical Twilight 4:34 AM CDT 10:06 PM CDT
Astronomical Twilight 3:41 AM CDT 10:59 PM CDT
Moon 6:19 AM CDT (5/10) 9:37 PM CDT (5/10)
Length of Visible Light 16h 01m
Length of Day
14h 51m
New Moon, 0% of the Moon is Illuminated
May 10
New Moon
May 17
First Quarter
May 24
Full
May 31
Last Quarter
Jun 8
New

Hourly Weather History & Observations

Time (CDT) Temp. Windchill Dew Point Humidity Pressure Visibility Wind Dir Wind Speed Gust Speed Precip Events Conditions
12:15 AM 44.6 °F - 37.4 °F 76% 30.18 in 10.0 mi Calm Calm - N/A   Clear
12:55 AM 42.8 °F - 37.4 °F 81% 30.18 in 10.0 mi Calm Calm - N/A   Clear
1:15 AM 42.8 °F - 37.4 °F 81% 30.19 in 10.0 mi Calm Calm - N/A   Clear
1:35 AM 42.8 °F 41.1 °F 37.4 °F 81% 30.19 in 10.0 mi ESE 3.5 mph - N/A   Clear
1:56 AM 42.8 °F - 37.4 °F 81% 30.18 in 10.0 mi Calm Calm - N/A   Clear
2:15 AM 42.8 °F - 37.4 °F 81% 30.18 in 10.0 mi Calm Calm - N/A   Clear
2:35 AM 41.0 °F - 37.4 °F 87% 30.18 in 10.0 mi Calm Calm - N/A   Clear
2:56 AM 39.2 °F 35.9 °F 37.4 °F 93% 30.18 in 10.0 mi ESE 4.6 mph - N/A   Clear
3:15 AM 41.0 °F 37.1 °F 37.4 °F 87% 30.17 in 10.0 mi SE 5.8 mph - N/A   Clear
3:35 AM 39.2 °F 34.2 °F 37.4 °F 93% 30.18 in 10.0 mi SE 6.9 mph - N/A   Clear
3:56 AM 39.2 °F 34.2 °F 37.4 °F 93% 30.18 in 10.0 mi SE 6.9 mph - N/A   Clear
4:15 AM 37.4 °F 32.1 °F 35.6 °F 93% 30.18 in 10.0 mi SSE 6.9 mph - N/A   Clear
4:35 AM 37.4 °F 32.1 °F 35.6 °F 93% 30.18 in 10.0 mi SSE 6.9 mph - N/A   Clear
4:56 AM 37.4 °F 32.1 °F 33.8 °F 87% 30.17 in 10.0 mi SSE 6.9 mph - N/A   Clear
5:15 AM 35.6 °F 29.9 °F 33.8 °F 93% 30.17 in 10.0 mi SSE 6.9 mph - N/A   Clear
5:35 AM 35.6 °F 30.7 °F 32.0 °F 87% 30.16 in 10.0 mi SE 5.8 mph - N/A   Clear
5:56 AM 35.6 °F 29.9 °F 32.0 °F 87% 30.16 in 10.0 mi SSE 6.9 mph - N/A   Clear
6:15 AM 35.6 °F 28.6 °F 32.0 °F 87% 30.15 in 10.0 mi SSE 9.2 mph - N/A   Clear
6:35 AM 35.6 °F 30.7 °F 32.0 °F 87% 30.15 in 10.0 mi SSE 5.8 mph - N/A   Clear
7:15 AM 37.4 °F 32.1 °F 32.0 °F 81% 30.16 in 10.0 mi SSE 6.9 mph - N/A   Clear
7:36 AM 37.4 °F 32.8 °F 32.0 °F 81% 30.16 in 10.0 mi SSE 5.8 mph - N/A   Clear
8:15 AM 41.0 °F 34.3 °F 30.2 °F 65% 30.16 in 10.0 mi SSE 11.5 mph - N/A   Clear
8:35 AM 42.8 °F 36.6 °F 30.2 °F 61% 30.15 in 10.0 mi SSE 11.5 mph - N/A   Clear
8:56 AM 42.8 °F 36.2 °F 30.2 °F 61% 30.15 in 10.0 mi SSE 12.7 mph - N/A   Clear
9:15 AM 44.6 °F 39.2 °F 30.2 °F 57% 30.14 in 10.0 mi SE 10.4 mph - N/A   Clear
9:36 AM 44.6 °F 39.2 °F 30.2 °F 57% 30.13 in 10.0 mi SSE 10.4 mph - N/A   Clear
9:55 AM 46.4 °F 41.1 °F 30.2 °F 53% 30.12 in 10.0 mi SE 11.5 mph - N/A   Clear
10:15 AM 48.2 °F - 30.2 °F 50% 30.11 in 10.0 mi South 11.5 mph - N/A   Clear
10:36 AM 50.0 °F - 30.2 °F 47% 30.11 in 10.0 mi SSE 10.4 mph - N/A   Clear
10:55 AM 50.0 °F - 30.2 °F 47% 30.11 in 10.0 mi SSW 11.5 mph - N/A   Clear
11:15 AM 50.0 °F - 30.2 °F 47% 30.11 in 10.0 mi SSW 11.5 mph - N/A   Clear
11:36 AM 51.8 °F - 30.2 °F 44% 30.10 in 10.0 mi South 8.1 mph - N/A   Clear
12:15 PM 55.4 °F - 30.2 °F 38% 30.08 in 10.0 mi SSW 10.4 mph - N/A   Clear
12:36 PM 55.4 °F - 30.2 °F 38% 30.07 in 10.0 mi SSW 9.2 mph - N/A   Clear
12:55 PM 57.2 °F - 30.2 °F 36% 30.05 in 10.0 mi SSW 13.8 mph 18.4 mph N/A   Clear
1:15 PM 59.0 °F - 32.0 °F 36% 30.04 in 10.0 mi SSW 13.8 mph 20.7 mph N/A   Clear
1:36 PM 59.0 °F - 32.0 °F 36% 30.03 in 10.0 mi SW 11.5 mph 18.4 mph N/A   Clear
1:56 PM 60.8 °F - 32.0 °F 34% 30.02 in 10.0 mi SSW 12.7 mph 20.7 mph N/A   Clear
2:15 PM 60.8 °F - 32.0 °F 34% 30.01 in 10.0 mi SW 10.4 mph 21.9 mph N/A   Clear
2:36 PM 60.8 °F - 32.0 °F 34% 30.00 in 10.0 mi SW 16.1 mph - N/A   Clear
2:56 PM 62.6 °F - 32.0 °F 32% 29.99 in 10.0 mi SW 15.0 mph 18.4 mph N/A   Clear
3:15 PM 62.6 °F - 32.0 °F 32% 29.97 in 10.0 mi SSW 16.1 mph 19.6 mph N/A   Clear
3:36 PM 62.6 °F - 32.0 °F 32% 29.96 in 10.0 mi SSW 13.8 mph 23.0 mph N/A   Clear
3:56 PM 62.6 °F - 32.0 °F 32% 29.95 in 10.0 mi SSW 11.5 mph - N/A   Clear
4:15 PM 62.6 °F - 32.0 °F 32% 29.93 in 10.0 mi SSW 13.8 mph 17.3 mph N/A   Clear
4:35 PM 62.6 °F - 32.0 °F 32% 29.92 in 10.0 mi SW 9.2 mph - N/A   Clear
4:55 PM 62.6 °F - 32.0 °F 32% 29.91 in 10.0 mi SSW 12.7 mph 17.3 mph N/A   Scattered Clouds
5:35 PM 62.6 °F - 35.6 °F 37% 29.90 in 10.0 mi SW 12.7 mph - N/A   Drizzle
5:55 PM 60.8 °F - 42.8 °F 52% 29.89 in 10.0 mi SSW 3.5 mph - N/A Rain Light Rain
6:15 PM 60.8 °F - 42.8 °F 52% 29.88 in 10.0 mi SW 3.5 mph - N/A Rain Light Rain
6:35 PM 60.8 °F - 39.2 °F 45% 29.88 in 10.0 mi West 17.3 mph 33.4 mph N/A Rain Light Rain
6:56 PM 59.0 °F - 37.4 °F 45% 29.92 in 10.0 mi North 27.6 mph 41.4 mph N/A   Scattered Clouds
7:15 PM 55.4 °F - 37.4 °F 51% 29.94 in 10.0 mi North 18.4 mph 38.0 mph N/A   Scattered Clouds
7:35 PM 55.4 °F - 37.4 °F 51% 29.95 in 10.0 mi North 24.2 mph 36.8 mph N/A   Scattered Clouds
7:56 PM 53.6 °F - 35.6 °F 51% 29.97 in 10.0 mi North 23.0 mph 38.0 mph N/A   Clear
8:15 PM 51.8 °F - 35.6 °F 54% 29.98 in 10.0 mi NNW 23.0 mph 31.1 mph N/A   Clear
8:35 PM 50.0 °F - 33.8 °F 54% 29.99 in 10.0 mi North 27.6 mph 38.0 mph N/A   Clear
8:56 PM 50.0 °F - 35.6 °F 58% 30.01 in 10.0 mi NNW 25.3 mph 32.2 mph N/A   Clear
9:16 PM 46.4 °F 38.3 °F 35.6 °F 66% 30.02 in 10.0 mi NNW 23.0 mph 26.5 mph N/A   Clear
9:35 PM 46.4 °F 38.3 °F 35.6 °F 66% 30.04 in 10.0 mi NNW 23.0 mph 29.9 mph N/A   Clear
9:56 PM 44.6 °F 36.4 °F 35.6 °F 71% 30.05 in 10.0 mi NNW 20.7 mph 27.6 mph N/A   Clear
10:16 PM 44.6 °F 37.2 °F 35.6 °F 71% 30.05 in 10.0 mi North 17.3 mph 27.6 mph N/A   Clear
10:35 PM 44.6 °F 37.2 °F 33.8 °F 66% 30.06 in 10.0 mi North 17.3 mph 26.5 mph N/A   Clear
10:56 PM 42.8 °F 37.0 °F 33.8 °F 70% 30.07 in 10.0 mi North 10.4 mph 18.4 mph N/A   Clear
11:16 PM 42.8 °F 38.6 °F 33.8 °F 70% 30.07 in 10.0 mi North 6.9 mph - N/A   Clear
11:35 PM 42.8 °F 38.0 °F 32.0 °F 66% 30.07 in 10.0 mi North 8.1 mph 23.0 mph N/A   Clear
11:56 PM 42.8 °F 36.6 °F 33.8 °F 70% 30.09 in 10.0 mi North 11.5 mph 16.1 mph N/A   Clear